1NV1 weather

Fallon Southwest Airpark
Fallon, Nevada, United States

Public forecast

Using degrees Fahrenheit for public forecast. Weather courtesy of forecast.io.

Closest aviation weather report (METAR) to Fallon Southwest Airpark

Report is more than 2 hours old.

Closest report is Fallon Naval Air Station, 6.3 nm (11.7 km) E. Retrieved 2020/04/10 00:56 UTC (2 hours ago):

KNFL 100056Z 12011KT 7SM -RA BKN030 OVC050 08/05 A3003 RMK AO2 RAB25 SLP139 WR// P0002 T00830050

Closest aviation forecast (TAF) to Fallon Southwest Airpark

Forecast is more than 12 hours old.

Closest forecast is Fallon Naval Air Station, 6.3 nm (11.7 km) E. Retrieved 2016/12/07 15:00 UTC (3 years ago):

TAF KNFL 071500Z 0715/0815 VRB06KT 9999 FEW020 SCT070 SCT120 BKN200 620709 521809 522709 QNH3015INS FM071800 VRB06KT 9999 FEW020 SCT060 BKN150 OVC200 620609 521809 522709 QNH3000INS FM080000 VRB06KT 9999 VCSHSN SCT040 BKN100 OVC150 620409 621305 521809 522709 QNH2995INS TEMPO 0800/0806 8000 -SHSN BKN040 OVC100 FM080600 VRB06KT 9999 VCSHSN BKN050 OVC100 620109 621008 521809 522709 QNH2985INS TEMPO 0806/0812 4800 -SN SCT020 BKN030 OVC080